Location: Fredericksburg
(30.2750°N, 98.8720°W)
Time: 21:09:47
(UTC-05:00)

PCSat - Visible Passes

Search period start: 28 July 2016 00:00
Search period end: 07 August 2016 00:00
Orbit: 786 x 795 km, 67.0° (Epoch: 28 July)

Date Brightness Start Highest point End Pass type
(mag) Time Alt. Az. Time Alt. Az. Time Alt. Az.
28 Jul 12.1 04:43:51 10° N 04:47:51 21° NE 04:51:50 10° ESE visible
28 Jul 9.9 06:26:17 10° NW 06:31:22 42° WSW 06:36:25 10° S visible
28 Jul 12.7 21:04:17 10° W 21:07:31 16° NW 21:10:47 10° NNW visible
29 Jul 12.5 04:13:50 10° NNE 04:16:50 15° NE 04:19:48 10° E visible
29 Jul 9.5 05:55:16 10° NNW 06:00:37 62° WSW 06:05:56 10° SSE visible
30 Jul 12.8 03:45:03 10° NE 03:45:45 10° NE 03:46:27 10° ENE visible
30 Jul 9.5 05:24:22 10° NNW 05:29:49 90° NNE 05:35:13 10° SSE visible
31 Jul 10.0 04:53:37 10° NNW 04:58:59 63° ENE 05:04:19 10° SE visible
01 Aug 10.6 04:22:57 10° N 04:28:07 43° ENE 04:33:14 10° SE visible
01 Aug 10.9 06:07:27 10° WNW 06:11:06 18° WSW 06:14:44 10° SSW visible
02 Aug 11.2 03:52:26 10° N 03:57:12 30° ENE 04:01:55 10° ESE visible
02 Aug 10.4 05:35:56 10° NW 05:40:25 27° WSW 05:42:59 19° SSW visible
03 Aug 11.7 03:22:05 10° N 03:26:14 22° ENE 03:28:25 17° E visible
03 Aug 10.1 05:04:42 10° NW 05:08:55 37° W 05:08:55 37° W visible
04 Aug 12.0 02:52:00 10° NNE 02:55:13 16° NE 02:56:05 15° ENE visible
04 Aug 10.6 04:33:39 10° NNW 04:36:40 33° NW 04:36:40 33° NW visible
05 Aug 12.4 02:22:42 10° NE 02:24:09 11° NE 02:24:26 11° NE visible
05 Aug 11.1 04:02:44 10° NNW 04:05:03 26° NNW 04:05:03 26° NNW visible
06 Aug 11.6 03:31:57 10° NNW 03:33:47 22° NNW 03:33:47 22° NNW visible
